Regional Weather Roundup
Issued by NWS

Home | Current Version | Previous Version | Graphics & Text | Print | Product List | Glossary On
Versions: 1 2 3 4 5 6 7 8 9 10 11 12 13 14 15 16 17 18 19 20 21 22 23 24 25 26 27 28 29 30 31 32 33 34 35 36 37 38 39 40 41 42 43 44 45 46 47 48 49 50
000
ASUS44 KMEG 281600
RWRTN
TENNESSEE HOURLY STATE WEATHER ROUNDUP
NATIONAL WEATHER SERVICE MEMPHIS TN
1100 AM CDT THU APR 28 2016

TNZ002-004-019-021-049-052-054-088>092-281700-
WEST TENNESSEE

CITY           SKY/WX    TMP DP  RH WIND       PRES   REMARKS
MEMPHIS INTL   MOSUNNY   78  54  43 N8        29.93R
NWS MEMPHIS      N/A     77 N/A N/A MISG        N/A
JACKSON        SUNNY     76  57  51 VRB7      29.92R
DYERSBURG      SUNNY     73  50  43 NW8       29.93R
UNION CITY     SUNNY     75  48  38 W8        29.90R
LEXINGTON      MOSUNNY   75  64  69 SW6       29.90R
$$

TNZ008-025-027-028-033-062-065-066-281700-
NORTH MIDDLE TENNESSEE

CITY           SKY/WX    TMP DP  RH WIND       PRES   REMARKS
NASHVILLE      MOSUNNY   76  63  64 S12       29.90R
CLARKSVILLE    MOSUNNY   74  64  71 NW12G17   29.89R
COOKEVILLE     PTSUNNY   75  64  69 VRB3      29.92R
CROSSVILLE     MOSUNNY   73  56  54 W8        29.96R
$$

TNZ061-075-076-078-094-096-097-281700-
SOUTH MIDDLE TENNESSEE

CITY           SKY/WX    TMP DP  RH WIND       PRES   REMARKS
TULLAHOMA      PTSUNNY   73  66  78 SW7       29.95R
WINCHESTER     PTSUNNY   75  63  64 VRB3      29.95R
MCMINNVILLE    PTSUNNY   75  66  73 SW9       29.94R
COLUMBIA       MOSUNNY   79  73  83 SW7       29.89R
SHELBYVILLE    MOSUNNY   79  68  69 S7        29.93S
$$

TNZ017-018-042-046-047-281700-
NORTHEAST TENNESSEE

CITY           SKY/WX    TMP DP  RH WIND       PRES   REMARKS
TRI CITIES     PTSUNNY   73  62  68 W10       29.93S
$$

TNZ012-013-036-069-073-074-281700-
CENTRAL EAST TENNESSEE

CITY           SKY/WX    TMP DP  RH WIND       PRES   REMARKS
KNOXVILLE      PTSUNNY   76  63  64 SW14      29.92S
OAK RIDGE      MOSUNNY   75  62  64 SW6       29.94R
GATLINBURG     MOSUNNY   75  63  64 W10       29.92R
$$

TNZ083-085-099-281700-
SOUTHEAST TENNESSEE

CITY           SKY/WX    TMP DP  RH WIND       PRES   REMARKS
CHATTANOOGA    PTSUNNY   78  59  51 S7        29.94R
$$

SKY/WX REPORTED AS FAIR MEANS FEW OR NO CLOUDS BELOW
12 THOUSAND FEET.





USA.gov is the U.S. government's official web portal to all federal, state and local government web resources and services.